Location: *
(49.9853°N, 3.5569°E)
Time: 03:11:44
(UTC+00:00)

Cosmos 1741 Rocket - Pass Details

Date: 22 September 2019
Orbit: 761 x 783 km, 74.0° (Epoch: 15 October)

Event Time Altitude Azimuth Distance (km) Brightness Sun altitude
Rises 19:21:19 0° 338° (NNW) 3,284 7.9 -16.0°
Reaches altitude 10° 19:23:48 10° 344° (NNW) 2,352 7.0 -16.4°
Maximum altitude 19:28:59 49° 59° (ENE) 1,005 4.3 -17.2°
Enters shadow 19:31:13 31° 116° (ESE) 1,358 4.7 -17.5°
